CAPE
498 520 1021 1302 1421 1229 1386 1573 1554 1457 1400 1158 933 960 1020 1134 1108 1214 791 528 433 445 608 633 738 1205 1318 1309 1397 1305 1074 1043 723 642 721 606 770 860 588 149 869 939 1015
477 769 1080 1488 1806 1671 1673 1389 1555 1500 1404 1218 1094 1115 1115 1255 1282 1114 825 813 793 1054 958 1000 1149 1144 1263 1314 1310 1377 1191 1081 1390 672 1138 1310 1186 1142 1169 472 434 323 886
500 796 832 1797 1863 1908 1623 1311 1623 1582 1462 1224 1205 1236 1281 1208 1173 1208 1090 987 1234 1260 1206 1249 1282 1018 929 1159 1361 1350 1435 1404 1220 500 89 53 486 732 884 271 817 861 518
504 891 681 1778 1854 1880 1464 1418 1589 1586 1445 1443 1271 1349 1194 1198 1255 1155 1097 1289 1399 1418 1278 1198 1378 1228 823 1111 1225 1332 1017 793 468 27 0 0 0 240 210 27 785 1001 1138
578 818 977 1701 1863 1735 1650 1428 1740 1771 1596 1628 1513 1310 1235 1076 1285 1214 1395 1485 1455 1305 1237 1259 1302 1208 1139 1125 1271 1296 1486 1314 862 659 18 367 277 257 49 919 1177 651 537
701 684 1217 1596 1862 1792 1660 1571 1799 1864 1856 1920 1580 1493 1289 1189 1319 1259 1118 1382 1386 1259 1125 1134 1075 1306 1188 1101 1315 1305 1138 630 517 277 316 50 465 1018 441 1045 1274 697 67
781 769 1023 1519 1858 1816 1841 1930 1860 1894 1867 1918 1847 1675 1600 1419 1568 1655 1529 1527 1308 1101 1157 966 1156 1158 1146 1148 1309 1114 801 263 108 178 206 337 147 1137 1387 1315 1205 735 430
530 889 1218 1498 1727 1832 1741 1948 2048 2059 1926 1911 1741 1730 1693 1549 1737 1610 1488 1361 1431 1290 1464 1297 1259 885 1026 902 917 971 646 600 112 24 86 375 447 482 367 526 750 1009 1191
434 815 998 1008 1024 1603 1796 1797 1955 1980 1937 2009 1965 2077 1982 1789 1569 1414 1293 1343 1405 1476 1295 1448 1081 970 1025 1202 1230 1107 1147 784 706 175 27 2 588 1134 1085 560 33 220 613
484 689 989 912 865 767 1101 1967 1826 2010 2111 2113 2081 1917 1924 1986 1856 1832 1222 1198 1611 1804 1286 1411 1119 1325 1087 1115 922 953 974 426 338 178 102 338 19 1142 1217 1251 700 181 353
711 803 939 1168 1044 939 1132 1550 1861 1816 1688 1725 2021 2186 1910 1268 1682 1542 1169 1018 1233 1198 1422 1439 1287 1395 1168 1162 1066 588 666 512 139 164 123 23 3 838 1838 1088 634 415 60
863 965 904 1211 1326 1240 1266 1611 1464 1622 1784 1789 1677 1832 1443 1358 981 1350 1239 1327 1647 1301 1297 1265 1209 1270 871 550 389 289 579 464 585 477 694 239 55 303 927 865 391 127 119
885 953 1059 1078 1301 1400 1120 1603 1708 1689 1601 1847 1620 1689 1618 1541 1203 1180 1184 947 1476 1285 1100 830 737 488 190 237 112 248 452 631 548 668 814 469 400 596 515 599 581 620 144
960 1016 1169 1231 1258 1346 1201 1496 1207 951 1245 1725 1727 1926 1650 1651 1251 1424 1129 344 330 1246 793 200 221 359 162 392 230 492 611 469 451 576 911 589 464 634 798 694 715 982 1037
1120 1174 1285 1428 1636 1621 1529 1231 1127 802 885 1479 1649 1953 1669 1386 1439 1522 1443 1135 170 1293 980 588 324 854 322 376 359 533 653 393 554 788 741 809 636 472 841 847 868 1390 1254
1327 1302 1342 1502 1820 1784 1705 1402 1054 936 751 1003 1218 1700 1712 1414 1433 1492 1087 1140 687 240 1101 1052 1052 933 342 86 187 295 722 522 638 937 917 1262 742 628 771 944 815 1092 1010
1620 1489 1363 1340 1532 1667 1711 1414 1173 895 815 704 776 1014 1285 1292 1378 1152 1269 612 1100 267 243 1098 1249 521 133 37 41 125 617 625 621 875 1076 1216 1094 553 805 1013 781 1080 955
1720 1687 1507 1297 1332 1587 1514 1203 937 880 753 624 638 847 1431 1430 1164 1126 889 505 421 1090 211 646 697 408 83 34 32 181 320 389 573 872 982 1004 987 1096 1105 701 431 265 448
1782 1834 1626 1390 1210 1406 1404 1144 965 932 940 617 542 601 1210 1271 1148 1004 519 453 597 419 458 103 138 173 65 82 64 179 206 181 339 522 580 890 1045 947 768 1002 596 245 141
1823 1867 1739 1525 1307 1372 1263 1088 915 729 870 738 671 699 749 1099 1030 972 689 697 788 304 262 171 90 71 65 97 176 117 104 117 155 458 732 879 694 763 832 710 1023 1070 656
1873 1885 1826 1620 1434 1450 1318 1193 800 626 589 656 856 903 957 911 833 1053 603 939 1035 687 514 590 491 299 103 29 102 105 108 192 302 438 655 620 507 637 739 751 838 675 578
1872 1933 1878 1767 1615 1595 1340 1216 943 803 587 541 812 958 1212 1390 983 734 624 644 1241 1192 1069 990 918 286 111 0 72 3 2 5 32 104 267 244 217 368 486 462 651 884 974
1461 2075 1951 1874 1779 1732 1438 1286 1119 998 855 611 553 726 983 1086 1100 915 700 706 963 1319 1017 1357 1221 911 280 170 258 0 20 21 48 214 372 625 449 534 767 780 898 999 1310
1191 1942 2111 2100 2016 1949 1776 1341 1359 1081 1009 812 668 557 581 844 854 944 1040 1210 1423 1241 1128 1022 1296 1199 942 775 787 965 743 416 29 70 483 747 1029 1177 1025 973 779 968 1191
1647 1889 1975 2024 2053 2055 1981 1723 1589 1449 1205 1121 923 767 621 724 817 794 1051 1309 1562 1537 1384 1128 1183 1062 992 933 718 802 894 609 685 501 334 413 652 516 687 922 906 725 766
1824 1878 1807 1925 2023 1910 1991 2063 1871 1901 1624 1419 1241 1033 791 683 847 913 889 1291 1563 1536 1623 1568 1613 1429 1347 967 974 1071 432 495 540 533 557 652 502 346 413 583 459 335 287
CIN
-1 -17 -5 -6 -8 -13 -8 -0 -2 -0 -4 -14 -15 -2 -0 -0 -0 -0 -5 -12 -15 -17 -10 -6 -6 -0 -0 -0 -0 -0 -5 -3 -9 -10 -4 -9 -2 -1 -9 -46 -5 -1 -0
-6 -13 -7 -6 -0 -2 -3 -13 -6 -3 -5 -6 -1 -0 -0 -0 -0 -0 -9 -7 -9 -0 -1 -1 -0 -3 -3 -0 -0 -0 -0 -3 -0 -1 -0 -0 -0 -0 -0 -6 -15 -17 -0
-14 -19 -18 -0 -0 -0 -8 -22 -5 -0 -1 -3 -0 -0 -0 -0 -0 -0 -1 -4 -0 -0 -0 -0 -0 -9 -9 -0 -0 -0 -1 -1 -0 -10 -52 -65 -6 -0 -0 -33 -8 -3 -9
-35 -26 -36 -0 -0 -2 -15 -16 -11 -9 -8 -1 -0 -0 -0 -0 -0 -0 -2 -1 -0 -0 -0 -2 -2 -6 -15 -0 -0 -0 -0 -0 -12 -101 -0 -0 -0 -46 -45 -120 -6 -0 -0
-33 -23 -43 -1 -2 -8 -10 -21 -10 -1 -7 -4 -0 -0 -1 -7 -0 -0 -0 -0 -0 -0 -0 -0 -0 -0 -0 -0 -0 -0 -0 -2 -11 -13 -14 -4 -18 -43 -89 -2 -0 -11 -6
-9 -18 -65 -22 -7 -6 -8 -15 -7 -0 -0 -0 -3 -0 -0 -1 -0 -0 -8 -0 -0 -0 -0 -0 -0 -0 -0 -0 -1 -0 -0 -13 -22 -2 -10 -74 -1 -4 -10 -0 -0 -10 -88
-8 -14 -58 -26 -6 -9 -0 -0 -6 -1 -0 -0 -0 -1 -1 -0 -0 -0 -0 -0 -0 -0 -0 -2 -0 -0 -0 -0 -0 -0 -9 -41 -37 -12 -15 -9 -77 -0 -0 -0 -0 -1 -27
-34 -16 -22 -7 -3 -6 -8 -0 -0 -0 -0 -0 -0 -3 -1 -2 -0 -0 -1 -0 -0 -0 -0 -0 -1 -0 -1 -1 -0 -0 -14 -19 -19 -41 -46 -7 -51 -38 -48 -25 -1 -0 -0
-60 -19 -35 -32 -25 -3 -2 -0 -0 -0 -0 -0 -0 -0 -0 -1 -2 -2 -1 -1 -0 -0 -2 -0 -0 -0 -0 -0 -0 -2 -0 -19 -2 -10 -65 -19 -40 -0 -0 -24 -185 -87 -0
-102 -30 -16 -32 -36 -41 -15 -0 -0 -0 -0 -0 -0 -2 -1 -0 -0 -0 -2 -2 -0 -0 -0 -0 -0 -1 -0 -0 -7 -6 -11 -32 -2 -8 -27 -32 -13 -0 -0 -0 -8 -104 -44
-114 -38 -18 -8 -16 -18 -1 -0 -1 -0 -0 -2 -0 -0 -0 -0 -0 -0 -3 -4 -3 -2 -1 -0 -0 -1 -0 -0 -3 -26 -36 -2 -15 -6 -16 -15 -5 -16 -0 -1 -26 -61 -179
-145 -46 -35 -7 -1 -2 -1 -1 -0 -0 -0 -1 -1 -0 -3 -1 -1 -0 -0 -2 -0 -1 -1 -0 -0 -0 -10 -2 -8 -40 -6 -0 -2 -1 -2 -59 -139 -78 -14 -13 -82 -151 -154
-180 -78 -37 -22 -5 -0 -2 -2 -0 -2 -2 -1 -4 -2 -1 -4 -6 -6 -2 -1 -0 -0 -1 -2 -1 -0 -1 -0 -6 -2 -1 -1 -0 -1 -19 -56 -73 -54 -63 -54 -54 -40 -144
-193 -110 -33 -22 -14 -2 -1 -2 -1 -1 -1 -0 -6 -0 -3 -2 -8 -1 -0 -7 -9 -3 -9 -13 -10 -1 -3 -3 -1 -0 -0 -1 -0 -2 -10 -47 -75 -68 -55 -55 -46 -13 -1
-169 -117 -60 -19 -8 -1 -0 -1 -1 -3 -2 -1 -1 -0 -1 -0 -1 -0 -0 -0 -62 -7 -6 -3 -1 -0 -2 -3 -0 -1 -1 -0 -1 -1 -1 -37 -69 -89 -65 -58 -48 -12 -7
-151 -131 -73 -38 -10 -0 -0 -1 -4 -5 -2 -0 -1 -0 -0 -0 -1 -3 -10 -2 -3 -26 -4 -3 -0 -0 -5 -30 -11 -7 -1 -0 -1 -1 -0 -2 -59 -86 -78 -58 -57 -38 -38
-143 -120 -107 -69 -31 -9 -5 -5 -3 -3 -1 -2 -1 -0 -0 -0 -1 -0 -1 -1 -4 -22 -28 -0 -0 -0 -32 -58 -56 -20 -0 -0 -1 -1 -0 -1 -16 -71 -73 -67 -64 -42 -44
-153 -142 -112 -104 -82 -33 -13 -25 -27 -11 -9 -2 -1 -1 -0 -0 -0 -1 -0 -6 -6 -0 -35 -3 -1 -5 -42 -52 -62 -23 -2 -1 -0 -0 -0 -1 -1 -1 -48 -62 -77 -81 -62
-150 -130 -133 -141 -149 -66 -41 -28 -28 -18 -16 -23 -12 -3 -0 -0 -0 -0 -2 -2 -0 -6 -10 -66 -49 -31 -48 -42 -51 -29 -15 -8 -1 -2 -1 -1 -0 -1 -1 -29 -45 -75 -89
-131 -114 -113 -136 -166 -109 -62 -45 -21 -29 -26 -21 -20 -12 -17 -2 -0 -0 -1 -1 -0 -13 -21 -47 -74 -85 -71 -35 -14 -6 -13 -10 -2 -2 -2 -1 -1 -0 -1 -1 -5 -8 -38
-118 -120 -105 -116 -139 -116 -97 -74 -75 -70 -53 -35 -27 -14 -15 -19 -13 -2 -11 -2 -6 -1 -4 -7 -12 -38 -93 -118 -43 -20 -10 -10 -2 -1 -2 -1 -4 -1 -1 -2 -1 -1 -2
-112 -119 -111 -98 -93 -87 -93 -103 -90 -77 -64 -58 -36 -22 -11 -4 -15 -20 -19 -3 -0 -1 -2 -3 -1 -23 -72 -0 -81 -32 -1 -2 -31 -11 -2 -1 -1 -1 -2 -1 -1 -0 -1
-202 -113 -95 -89 -73 -61 -71 -59 -55 -28 -28 -43 -36 -22 -20 -22 -19 -36 -42 -18 -0 -0 -10 -1 -1 -1 -8 -27 -31 -0 -21 -49 -3 -3 -3 -2 -1 -2 -2 -2 -2 -1 -0
-205 -87 -55 -37 -40 -41 -58 -55 -49 -72 -69 -82 -77 -56 -45 -40 -33 -27 -16 -5 -1 -4 -3 -2 -0 -2 -7 -6 -3 -0 -5 -8 -79 -47 -3 -1 -1 -8 -3 -2 -2 -0 -1
-76 -32 -24 -13 -14 -4 -17 -26 -38 -56 -40 -32 -34 -37 -65 -30 -40 -32 -17 -3 -1 -3 -1 -3 -2 -1 -5 -7 -11 -5 -1 -2 -3 -3 -2 -1 -3 -2 -2 -2 -2 -1 -1
-42 -25 -20 -11 -2 -12 -5 -0 -4 -15 -27 -17 -26 -18 -37 -51 -30 -22 -7 -2 -0 -1 -6 -1 -1 -0 -1 -2 -7 -6 -8 -1 -6 -7 -1 -2 -2 -2 -3 -2 -2 -1 -1
Wind_Speed
26 26 27 21 17 19 18 17 17 20 21 19 11 15 19 18 12 12 14 10 10 20 17 15 10 7 3 2 1 1 9 4 4 6 5 10 10 6 8 20 30 3 6
27 30 29 25 19 18 17 17 19 19 17 14 8 9 17 19 15 13 8 6 7 12 13 13 12 8 5 3 2 4 8 11 8 10 10 11 8 0 7 8 1 1 6
29 31 30 27 24 22 18 16 16 16 12 10 9 9 9 21 17 12 6 5 12 12 12 13 12 10 9 9 7 8 4 8 6 8 29 4 6 3 6 4 1 8 12
30 31 29 28 26 24 22 19 16 13 14 13 6 9 11 8 10 9 6 2 11 14 14 14 13 13 12 11 12 6 7 8 10 26 18 4 4 4 5 4 8 22 21
31 30 28 28 27 26 24 23 17 15 14 9 7 11 16 7 10 11 2 2 7 12 15 14 15 14 14 9 5 8 3 3 23 20 10 12 14 10 14 21 21 21 10
31 29 28 28 27 26 25 23 22 21 18 9 4 6 23 27 31 7 6 4 7 12 13 15 17 15 15 9 12 11 7 17 24 7 7 14 6 17 19 11 14 17 17
31 27 28 26 25 24 25 25 25 25 24 22 13 20 23 28 28 27 27 10 11 13 16 17 17 17 17 12 16 13 9 20 18 11 7 11 9 13 14 14 16 18 21
29 27 27 25 24 22 24 24 24 24 24 24 11 8 17 26 27 27 26 27 19 19 17 17 15 16 16 15 14 14 14 19 18 8 7 7 11 16 15 14 16 18 21
27 26 27 26 25 23 22 23 23 23 24 23 19 21 27 25 25 27 27 26 25 21 19 16 14 13 14 13 14 15 17 18 18 9 9 7 7 6 14 14 14 21 21
25 25 26 26 25 25 23 22 21 20 21 18 21 10 19 23 24 26 25 25 25 22 18 17 14 12 13 16 16 14 17 19 20 8 12 8 8 18 19 13 16 21 21
24 24 26 25 25 25 23 22 20 18 18 16 10 21 25 26 26 22 24 23 24 23 20 16 15 14 16 16 17 17 20 17 10 14 10 9 8 17 2 17 19 20 20
24 25 25 26 25 25 23 20 23 18 18 13 24 24 27 23 25 26 24 24 24 24 23 21 18 18 23 19 19 20 23 11 16 14 10 9 9 16 18 20 20 20 20
24 24 24 26 26 25 24 19 23 20 20 19 31 23 29 20 23 22 23 26 20 22 24 24 23 26 27 23 19 22 17 18 15 15 9 10 10 15 21 21 21 21 20
23 23 23 25 25 27 24 21 24 21 22 22 22 30 24 22 23 23 24 23 24 20 25 26 26 26 26 24 22 21 22 20 18 17 11 9 12 17 20 22 22 22 19
21 22 22 25 24 25 26 23 24 23 23 23 16 27 15 24 19 23 25 25 24 5 26 26 24 23 24 26 25 25 24 23 21 21 21 9 9 18 20 19 16 15 17
20 22 21 23 24 24 24 24 23 23 22 26 21 16 25 25 8 15 26 18 21 16 6 27 23 24 25 26 27 26 24 24 23 22 22 17 6 13 16 19 16 9 8
19 21 21 20 23 24 23 22 24 21 28 24 30 2 19 31 15 20 8 12 8 15 20 16 22 20 24 25 26 25 26 26 25 24 23 22 11 6 9 14 18 15 7
15 19 20 20 21 22 23 20 21 21 20 29 19 12 15 6 13 20 18 16 11 7 11 10 14 19 22 23 24 26 26 27 25 27 26 24 22 19 4 9 12 14 10
13 14 17 19 18 21 22 21 19 17 20 16 12 7 5 11 10 17 21 16 11 9 8 11 12 20 21 22 24 26 28 29 28 29 29 27 25 24 24 5 0 6 9
10 14 15 16 17 19 18 20 19 17 17 19 18 8 4 7 9 10 18 20 11 13 11 15 16 14 23 21 25 26 28 29 31 29 30 30 30 29 27 28 21 16 4
7 11 14 16 14 16 17 16 18 20 16 15 14 15 8 6 6 8 15 12 16 16 18 9 18 21 19 23 25 27 30 30 33 33 32 31 32 27 29 30 28 29 26
8 10 12 15 15 15 15 13 14 17 17 16 14 15 16 14 13 10 8 17 11 20 28 25 20 24 23 21 23 26 27 26 21 22 32 32 32 32 30 21 23 28 28
11 11 11 12 14 15 12 9 7 8 16 13 11 11 14 17 16 15 13 15 17 13 15 13 27 29 23 21 21 25 21 23 24 22 14 22 26 25 27 26 24 23 23
14 12 14 14 14 14 15 12 12 11 10 10 13 13 13 16 18 17 17 14 18 19 14 16 12 15 28 25 22 26 27 22 21 26 25 21 22 23 24 27 27 26 25
18 16 16 18 19 16 16 16 15 15 15 14 9 9 11 10 16 19 18 18 14 9 19 14 16 18 15 26 31 27 26 26 27 27 31 30 25 20 21 20 24 26 25
22 20 18 19 22 25 21 19 19 16 17 17 15 15 14 11 11 16 18 17 17 14 10 10 9 15 19 27 28 31 33 27 23 22 23 29 32 30 25 28 30 30 31
Wind_Direction
115 114 116 97 82 96 94 89 86 88 91 90 104 94 92 93 98 98 96 104 170 176 180 184 188 188 192 41 42 209 40 30 31 36 32 43 43 40 174 157 128 57 162
113 121 119 107 91 94 97 93 92 89 89 91 114 164 94 95 93 94 117 156 174 189 191 193 196 202 214 225 308 228 35 46 44 43 45 47 41 87 186 183 115 172 30
115 121 123 112 102 100 98 96 94 91 92 97 176 178 104 102 94 93 134 173 197 200 203 202 205 211 218 215 226 218 17 39 30 148 124 14 28 214 200 201 214 28 36
117 121 121 117 109 105 103 99 96 94 96 96 118 190 190 187 193 94 93 160 213 211 211 211 212 214 215 217 208 225 32 40 195 147 165 224 12 228 218 31 29 70 65
123 123 117 118 114 111 109 106 99 96 98 99 104 194 197 105 204 208 202 238 234 224 217 219 214 218 215 231 259 225 294 300 167 170 204 198 51 36 51 75 75 69 69
129 122 120 120 117 116 114 110 108 107 105 99 167 203 196 187 163 227 235 264 257 233 229 223 213 220 217 245 226 224 244 192 158 241 232 193 354 66 71 34 42 54 55
132 121 126 123 119 118 118 118 117 119 119 115 212 206 202 191 184 189 181 121 244 238 229 223 223 220 217 234 213 222 236 187 192 222 253 218 20 50 50 50 57 67 83
133 126 128 127 124 118 121 119 119 119 121 124 104 226 220 201 198 195 197 182 221 223 232 227 232 226 222 221 219 220 216 195 189 267 278 255 43 72 61 52 67 87 90
132 130 132 134 133 128 124 127 124 124 127 126 122 216 200 211 209 200 195 206 205 220 228 235 240 238 232 225 227 226 217 213 208 280 268 340 5 323 61 59 87 156 136
133 135 137 138 138 138 134 131 131 128 129 124 130 250 229 217 215 206 205 206 210 219 232 231 241 247 238 229 232 241 229 208 202 311 253 330 12 216 153 64 220 161 156
138 138 144 141 143 143 141 139 134 133 134 130 255 228 210 208 195 221 215 222 215 215 224 238 240 244 238 238 236 239 216 226 275 246 296 353 6 234 337 230 212 177 176
144 144 145 149 148 147 146 137 148 139 140 132 231 224 212 222 212 196 212 210 216 215 216 227 237 236 219 232 232 225 206 272 248 256 304 358 3 258 237 225 220 202 188
145 146 147 152 153 152 152 139 152 146 149 142 201 227 209 238 225 226 214 195 232 225 220 218 223 208 208 225 237 226 246 243 260 267 322 333 67 139 203 223 219 209 182
147 148 148 152 154 160 154 146 161 154 155 154 200 213 231 236 230 226 220 221 223 240 214 212 212 212 219 228 234 239 237 244 258 264 319 352 116 160 179 203 212 212 175
146 150 149 155 154 159 161 157 162 162 161 161 142 232 175 240 252 239 227 219 229 315 221 219 229 235 234 231 231 230 230 241 249 253 263 353 125 174 179 176 156 160 168
149 151 151 154 156 158 161 164 162 163 160 175 157 149 173 223 280 260 233 257 250 263 150 219 242 237 237 236 236 240 244 247 251 254 255 292 26 152 165 175 163 123 123
151 152 155 153 160 162 161 160 167 160 184 169 208 159 161 201 264 253 284 278 290 270 257 266 249 258 247 247 245 251 249 253 254 260 262 269 334 77 135 162 178 171 138
150 155 156 155 158 161 163 159 162 162 162 190 261 272 265 268 269 257 261 271 280 290 277 282 273 266 259 259 256 253 255 254 264 258 263 271 280 282 36 151 167 179 174
161 158 158 157 159 163 165 163 163 160 166 159 154 271 265 269 269 267 261 272 279 284 285 279 280 266 264 265 263 259 254 254 257 255 255 263 275 279 280 334 326 183 189
170 168 168 163 161 164 163 166 167 165 167 169 167 162 252 259 266 268 270 267 278 278 281 273 271 274 264 269 265 265 261 259 251 260 257 257 255 269 278 280 299 311 222
204 182 177 175 171 166 167 168 170 173 169 171 171 170 173 187 228 260 272 276 274 274 272 283 269 266 271 266 267 265 261 263 252 255 260 267 262 284 280 280 285 285 294
231 207 196 189 185 180 178 177 174 173 175 176 175 176 178 177 179 188 247 273 272 271 259 261 268 263 267 270 269 268 269 274 286 285 266 270 272 276 282 300 298 290 290
265 238 232 218 203 199 199 216 218 192 176 177 184 188 184 184 184 185 187 191 273 273 276 277 260 254 270 272 270 268 283 283 285 292 299 293 289 293 291 295 299 300 300
309 275 260 250 236 218 211 217 223 232 220 202 192 191 193 190 190 190 190 192 192 273 272 276 273 275 265 271 272 271 273 288 293 291 293 300 300 300 299 296 296 299 300
321 301 281 267 260 248 236 230 224 238 257 262 240 215 211 221 197 196 196 195 198 221 275 274 276 276 276 272 264 273 278 282 283 287 281 284 299 307 306 307 304 302 304
321 308 297 283 271 262 254 244 241 230 246 257 257 263 260 228 221 202 198 198 198 200 227 241 252 274 278 274 273 271 270 280 288 289 291 291 290 295 301 300 299 300 299